Wheaton NDB, MN

4:18 AM CDT on August 24, 2017 (GMT -0500)
Wheaton Municipal

Weather History for KETH - April, 2013

Change the Weather History Date:

Wednesday, April 17, 2013

  Actual Average Record
Temperature  
Mean Temperature 32 °F -  
Max Temperature 33 °F 62 °F 88 °F (1985)
Min Temperature 30 °F 33 °F 13 °F (1953)
Degree Days  
Heating Degree Days 34    
Moisture  
Dew Point 30 °F    
Average Humidity 94    
Maximum Humidity 100    
Minimum Humidity 87    
Precipitation  
Precipitation 0.00 in - - ()
Sea Level Pressure  
Sea Level Pressure 30.23 in    
Wind  
Wind Speed 8 mph (NNW)    
Max Wind Speed 16 mph    
Max Gust Speed 22 mph    
Visibility 7 miles    
Events Snow    
Averages and records for this station are not official NWS values.
T = Trace of Precipitation, MM = Missing Value Source: NWS Daily Summary

Daily Weather History Graph

Daily Weather History Graph

Search for Another Location

Airport or City:

Trip Planner

Search our weather history database for the weather conditions in past years. The results will help you decide how hot, cold, wet, or windy it might be!

Date:

Astronomy

Apr. 17, 2013 Rise Set
Actual Time 6:36 AM CDT 8:15 PM CDT
Civil Twilight 6:04 AM CDT 8:47 PM CDT
Nautical Twilight 5:26 AM CDT 9:25 PM CDT
Astronomical Twilight 4:45 AM CDT 10:07 PM CDT
Moon 11:45 AM CDT (4/17) 2:00 AM CDT (4/17)
Length of Visible Light 14h 42m
Length of Day
13h 39m
Waxing Crescent, 42% of the Moon is Illuminated
Apr 17
Waxing Crescent
Apr 18
First Quarter
Apr 25
Full
May 2
Last Quarter
May 9
New

Hourly Weather History & Observations

Time (CDT) Temp. Windchill Dew Point Humidity Pressure Visibility Wind Dir Wind Speed Gust Speed Precip Events Conditions
12:15 AM 30.2 °F 26.7 °F 28.4 °F 93% 30.37 in 10.0 mi NW 3.5 mph - N/A   Mostly Cloudy
12:34 AM 30.2 °F 23.4 °F 28.4 °F 93% 30.36 in 10.0 mi NNW 6.9 mph - N/A   Mostly Cloudy
12:55 AM 30.2 °F 25.4 °F 28.4 °F 93% 30.37 in 10.0 mi NNW 4.6 mph - N/A   Mostly Cloudy
1:15 AM 30.2 °F 24.3 °F 28.4 °F 93% 30.37 in 10.0 mi NNW 5.8 mph - N/A   Overcast
1:34 AM 30.2 °F 24.3 °F 28.4 °F 93% 30.38 in 10.0 mi NW 5.8 mph - N/A   Overcast
1:54 AM 30.2 °F 25.4 °F 28.4 °F 93% 30.38 in 10.0 mi NNW 4.6 mph - N/A   Overcast
2:14 AM 30.2 °F 23.4 °F 28.4 °F 93% 30.37 in 10.0 mi NNW 6.9 mph - N/A   Overcast
2:34 AM 30.2 °F 25.4 °F 28.4 °F 93% 30.37 in 10.0 mi NW 4.6 mph - N/A   Overcast
2:54 AM 30.2 °F 24.3 °F 28.4 °F 93% 30.37 in 10.0 mi NNW 5.8 mph - N/A   Overcast
3:15 AM 30.2 °F 25.4 °F 28.4 °F 93% 30.37 in 7.0 mi NNW 4.6 mph - N/A   Overcast
3:35 AM 30.2 °F 26.7 °F 28.4 °F 93% 30.37 in 7.0 mi NNW 3.5 mph - N/A   Mostly Cloudy
3:55 AM 30.2 °F 25.4 °F 28.4 °F 93% 30.37 in 7.0 mi NW 4.6 mph - N/A   Mostly Cloudy
4:35 AM 30.2 °F 23.4 °F 28.4 °F 93% 30.36 in 7.0 mi NW 6.9 mph - N/A   Overcast
4:55 AM 30.2 °F 23.4 °F 28.4 °F 93% 30.35 in 5.0 mi NNW 6.9 mph - N/A   Overcast
5:14 AM 30.2 °F 24.3 °F 28.4 °F 93% 30.34 in 5.0 mi NNW 5.8 mph - N/A   Overcast
5:34 AM 30.2 °F 21.9 °F 28.4 °F 93% 30.33 in 4.0 mi NNW 9.2 mph - N/A Snow Light Snow
5:54 AM 30.2 °F 21.9 °F 28.4 °F 93% 30.30 in 2.5 mi North 9.2 mph - N/A Snow Light Snow
6:14 AM 30.2 °F 20.2 °F 28.4 °F 93% 30.29 in 4.0 mi NNW 12.7 mph - N/A Snow Light Snow
6:34 AM 30.2 °F 21.9 °F 28.4 °F 93% 30.28 in 4.0 mi North 9.2 mph - N/A   Overcast
6:54 AM 30.2 °F 21.3 °F 28.4 °F 93% 30.28 in 5.0 mi North 10.4 mph - N/A   Overcast
7:14 AM 30.2 °F 21.9 °F 28.4 °F 93% 30.30 in 5.0 mi North 9.2 mph - N/A   Overcast
7:35 AM 30.2 °F 23.4 °F 28.4 °F 93% 30.32 in 5.0 mi North 6.9 mph - N/A   Overcast
7:54 AM 30.2 °F 25.4 °F 28.4 °F 93% 30.33 in 4.0 mi North 4.6 mph - N/A   Overcast
8:14 AM 30.2 °F 23.4 °F 30.2 °F 100% 30.33 in 4.0 mi NNW 6.9 mph - N/A Snow Light Snow
8:35 AM 30.2 °F 23.4 °F 30.2 °F 100% 30.31 in 7.0 mi NNW 6.9 mph - N/A   Scattered Clouds
9:14 AM 30.2 °F 22.6 °F 30.2 °F 100% 30.30 in 7.0 mi North 8.1 mph - N/A   Scattered Clouds
9:34 AM 30.2 °F 24.3 °F 30.2 °F 100% 30.30 in 7.0 mi North 5.8 mph - N/A   Overcast
9:54 AM 30.2 °F 22.6 °F 30.2 °F 100% 30.29 in 10.0 mi North 8.1 mph - N/A   Overcast
10:15 AM 32.0 °F 24.8 °F 30.2 °F 93% 30.28 in 10.0 mi North 8.1 mph - N/A   Overcast
10:35 AM 32.0 °F 24.8 °F 30.2 °F 93% 30.27 in 10.0 mi North 8.1 mph - N/A   Overcast
10:55 AM 32.0 °F 24.2 °F 30.2 °F 93% 30.26 in 10.0 mi North 9.2 mph - N/A   Overcast
11:14 AM 32.0 °F 24.2 °F 30.2 °F 93% 30.26 in 10.0 mi North 9.2 mph - N/A   Scattered Clouds
11:35 AM 33.8 °F 26.4 °F 30.2 °F 87% 30.26 in 10.0 mi North 9.2 mph - N/A   Scattered Clouds
11:55 AM 32.0 °F 23.0 °F 30.2 °F 93% 30.23 in 10.0 mi North 11.5 mph - N/A   Mostly Cloudy
12:15 PM 33.8 °F 25.8 °F 30.2 °F 87% 30.23 in 10.0 mi North 10.4 mph - N/A   Mostly Cloudy
12:35 PM 33.8 °F 25.8 °F 30.2 °F 87% 30.23 in 10.0 mi NNW 10.4 mph - N/A   Mostly Cloudy
12:55 PM 33.8 °F 25.8 °F 32.0 °F 93% 30.23 in 10.0 mi NNW 10.4 mph - N/A   Scattered Clouds
1:15 PM 33.8 °F 26.4 °F 32.0 °F 93% 30.23 in 10.0 mi North 9.2 mph - N/A   Scattered Clouds
1:34 PM 33.8 °F 24.3 °F 32.0 °F 93% 30.21 in 10.0 mi NNW 13.8 mph - N/A   Scattered Clouds
1:55 PM 33.8 °F 23.9 °F 32.0 °F 93% 30.20 in 10.0 mi NNW 15.0 mph 18.4 mph N/A   Mostly Cloudy
2:15 PM 33.8 °F 24.8 °F 32.0 °F 93% 30.18 in 7.0 mi NNW 12.7 mph - N/A   Mostly Cloudy
2:35 PM 33.8 °F 24.3 °F 32.0 °F 93% 30.17 in 7.0 mi NNW 13.8 mph - N/A   Mostly Cloudy
2:54 PM 33.8 °F 24.3 °F 32.0 °F 93% 30.17 in 7.0 mi NNW 13.8 mph - N/A   Overcast
3:35 PM 33.8 °F 23.9 °F 32.0 °F 93% 30.15 in 7.0 mi NNW 15.0 mph - N/A   Mostly Cloudy
3:55 PM 33.8 °F 24.3 °F 32.0 °F 93% 30.16 in 7.0 mi NNW 13.8 mph - N/A   Overcast
4:14 PM 33.8 °F 24.3 °F 32.0 °F 93% 30.16 in 7.0 mi NNW 13.8 mph 18.4 mph N/A   Overcast
4:34 PM 33.8 °F 24.8 °F 32.0 °F 93% 30.16 in 10.0 mi NNW 12.7 mph - N/A   Overcast
4:55 PM 33.8 °F 23.9 °F 32.0 °F 93% 30.15 in 7.0 mi NNW 15.0 mph - N/A   Overcast
5:14 PM 33.8 °F 24.8 °F 32.0 °F 93% 30.14 in 7.0 mi NNW 12.7 mph 19.6 mph N/A   Overcast
5:34 PM 33.8 °F 23.9 °F 32.0 °F 93% 30.13 in 7.0 mi NNW 15.0 mph - N/A   Overcast
5:54 PM 33.8 °F 23.5 °F 32.0 °F 93% 30.12 in 7.0 mi NNW 16.1 mph 21.9 mph N/A   Mostly Cloudy
6:15 PM 33.8 °F 24.8 °F 30.2 °F 87% 30.13 in 7.0 mi NNW 12.7 mph 20.7 mph N/A   Mostly Cloudy
6:34 PM 33.8 °F 23.9 °F 30.2 °F 87% 30.13 in 7.0 mi NNW 15.0 mph - N/A   Overcast
6:55 PM 33.8 °F 24.8 °F 30.2 °F 87% 30.13 in 7.0 mi NNW 12.7 mph - N/A   Overcast
7:15 PM 32.0 °F 22.1 °F 30.2 °F 93% 30.13 in 7.0 mi NNW 13.8 mph 20.7 mph N/A   Overcast
7:34 PM 32.0 °F 21.6 °F 30.2 °F 93% 30.13 in 7.0 mi NNW 15.0 mph 18.4 mph N/A   Overcast
7:54 PM 32.0 °F 21.2 °F 30.2 °F 93% 30.11 in 7.0 mi NNW 16.1 mph 20.7 mph N/A   Overcast
8:14 PM 32.0 °F 22.1 °F 32.0 °F 100% 30.11 in 5.0 mi NNW 13.8 mph - N/A   Overcast
8:35 PM 32.0 °F 22.5 °F 32.0 °F 100% 30.11 in 5.0 mi NNW 12.7 mph 18.4 mph N/A   Overcast
8:54 PM 32.0 °F 22.1 °F 32.0 °F 100% 30.11 in 7.0 mi NNW 13.8 mph - N/A   Overcast
9:15 PM 32.0 °F 22.5 °F 32.0 °F 100% 30.12 in 5.0 mi NNW 12.7 mph - N/A Snow Light Snow
9:34 PM 32.0 °F 22.5 °F 32.0 °F 100% 30.12 in 5.0 mi NNW 12.7 mph 18.4 mph N/A Snow Light Snow
9:55 PM 32.0 °F 22.5 °F 32.0 °F 100% 30.13 in 5.0 mi NNW 12.7 mph - N/A Snow Light Snow
10:15 PM 32.0 °F 22.1 °F 32.0 °F 100% 30.12 in 7.0 mi NNW 13.8 mph 17.3 mph N/A Snow Light Snow
10:35 PM 32.0 °F 23.6 °F 32.0 °F 100% 30.12 in 4.0 mi NNW 10.4 mph 18.4 mph N/A Snow Light Snow
10:50 PM 32.0 °F 22.5 °F 32.0 °F 100% 30.13 in 4.0 mi NNW 12.7 mph - N/A Snow Light Snow
11:15 PM 32.0 °F 23.0 °F 30.2 °F 93% 30.11 in 5.0 mi NNW 11.5 mph - N/A   Overcast
11:35 PM 32.0 °F 22.5 °F 30.2 °F 93% 30.09 in 7.0 mi NNW 12.7 mph - N/A   Overcast
11:55 PM 32.0 °F 22.5 °F 30.2 °F 93% 30.09 in 7.0 mi NNW 12.7 mph - N/A   Overcast